Regional Weather Roundup
Issued by NWS San Diego, CA

Home | Current Version | Previous Version | Text Only | Print | Product List | Glossary On
Versions: 1 2 3 4 5 6 7 8 9 10 11 12 13 14 15 16 17 18 19 20 21 22 23 24 25 26 27 28 29 30 31 32 33 34 35 36 37 38 39 40 41 42 43 44 45 46 47 48 49 50
000
ASUS46 KSGX 231111
RWRSGX

SAN DIEGO HOURLY WEATHER ROUNDUP
NATIONAL WEATHER SERVICE SAN DIEGO CA
400 AM PDT TUE MAY 23 2017

NOTE: "FAIR" INDICATES FEW OR NO CLOUDS BELOW 12,000 FEET WITH NO
SIGNIFICANT WEATHER AND/OR OBSTRUCTIONS TO VISIBILITY.

CAZ042-043-060-061-PZZ750-775-231200-

GREATER SAN DIEGO AREA

CITY           SKY/WX    TMP DP  RH WIND       PRES   REMARKS
SAN DIEGO AP   CLOUDY    63  59  87 N6        29.95F
NATIONAL CITY    N/A     61  58  88 CALM      29.94S
CHULA VISTA      N/A     60  58  93 NE5       29.86F
IMPERIAL BEACH CLOUDY    61  57  87 NE6       29.94F
BROWN FIELD    FOG       59  59 100 CALM      29.93S VSB 3/4
MIRAMAR MCAS   CLOUDY    63  57  81 E3        29.93F FOG
MONTGOMERY FLD CLOUDY    60  56  86 CALM      29.94S

$$

NORTH SAN DIEGO COUNTY

CITY           SKY/WX    TMP DP  RH WIND       PRES   REMARKS
CAMP PENDLETON CLOUDY    61  59  93 CALM      29.94S FOG
OCEANSIDE AP   CLOUDY    62  59  90 CALM      29.93F
OCEANSIDE HBR    N/A     61  58  90 CALM      29.96F
VISTA            N/A     58  53  81 CALM      29.92S
CARLSBAD       CLOUDY    60  59  96 CALM      29.93S FOG
DEL MAR          N/A     60  58  92 CALM      29.95F
LA JOLLA SCRIP   N/A     60  59  95 NE2       29.93F
FALLBROOK        N/A     57  57 100 CALM        N/A
ESCONDIDO        N/A     59  56  88 CALM      29.94S
SAN MARCOS       N/A     58  53  85 CALM      29.94F
POWAY            N/A     57  54  89 CALM      29.95F

$$

EAST SAN DIEGO COUNTY

CITY           SKY/WX    TMP DP  RH WIND       PRES   REMARKS
RAMONA         CLEAR     53  52  96 CALM      29.95S
SANTEE LAKES     N/A     56  54  91 CALM      29.92F
LA MESA          N/A     58  56  95 CALM      29.86F
JAMUL            N/A     55  53  92 CALM      29.91F
DESCANSO N       N/A     56  38  51 NE5       29.86S
MT. LAGUNA OBS   N/A     68  26  20 CALM      29.76S
CAMPO            N/A     50  43  77 NE7       29.97F

$$

ORANGE COUNTY AND THE LOS ANGELES BASIN

CITY           SKY/WX    TMP DP  RH WIND       PRES   REMARKS
JOHN WAYNE AP  CLOUDY    61  58  90 CALM      29.94S
LAKE FOREST FR   N/A     57  53  85 CALM      29.80F
HUNTINGTON BCH   N/A     56  54  93 CALM      29.95S
FULLERTON      CLEAR     61  58  90 CALM      29.93S
LONG BEACH     CLEAR     61  54  77 NW3       29.94S
L.A. AP        PTCLDY    59  56  89 CALM      29.94S
L.A. DOWNTOWN  CLEAR     60  56  86 CALM      29.93F

$$

THE INLAND EMPIRE

CITY           SKY/WX    TMP DP  RH WIND       PRES   REMARKS
CORONA         CLEAR     59  56  89 CALM      29.95R
CHINO          CLEAR     60  56  86 CALM      29.95S FOG
ONTARIO        MOCLDY    63  56  78 CALM      29.94S
SAN BERNARDINO FAIR      66  52  60 S3        29.95S
RIVERSIDE AP   CLEAR     64  56  75 CALM      29.94S
MORENO VALLEY    N/A     64  55  73 CALM      28.06S
MARCH ARB      CLEAR     58  52  79 NW3       29.95F
HORSETHIEF CYN   N/A     61  47  61 W3        29.91S
PERRIS           N/A     66  57  72 CALM      29.95S
HEMET EAST       N/A     67  45  44 CALM      29.95S
FRENCH VALLEY  FAIR      61  50  67 CALM      29.95F
TEMECULA         N/A     61  54  77 CALM      30.01F

$$

SAN BERNARDINO AND RIVERSIDE COUNTY MOUNTAINS

CITY           SKY/WX    TMP DP  RH WIND       PRES   REMARKS
BIG BEAR AP    CLEAR     39  28  65 CALM      30.27S
ANGELUS OAKS     N/A     57  33  40 CALM      29.82S
PINE COVE        N/A     63  36  36 CALM      29.87F

$$

SOUTHERN DESERT INCLUDING THE COACHELLA VALLEY

CITY           SKY/WX    TMP DP  RH WIND       PRES   REMARKS
PALM SPRINGS   CLEAR     81  52  36 CALM      29.83S
PALM DESERT      N/A     81  54  39 CALM      29.64S
THERMAL        CLEAR     86  48  26 NW8       29.76S
BLYTHE         CLEAR     75  36  24 N7        29.81R
IMPERIAL AP    PTCLDY    77  42  28 W6        29.77S
EL CENTRO NAS  PTCLDY    75  31  19 W9        29.79
YUMA AZ        CLEAR     77  44  30 CALM      29.79S

$$

UPPER DESERT

CITY           SKY/WX    TMP DP  RH WIND       PRES   REMARKS
VICTORVILLE AP CLEAR     64  37  36 S8        30.02S
HESPERIA         N/A     64  42  45 SW3       29.99R
PALMDALE       CLEAR     67  37  33 SW10      30.00R
LANCASTER      CLEAR     59  38  45 NE5       29.99R
EDWARDS AFB    CLEAR     63  36  36 SW6       29.96R
DAGGETT        CLEAR     74  34  23 W10       29.95S
29 PALMS N     CLEAR     76  28  17 W12       30.01R
NEEDLES        CLEAR     77  28  16 S5        29.86R

$$

REGIONAL REPORTS

CITY           SKY/WX    TMP DP  RH WIND       PRES   REMARKS
SANTA BARBARA  CLOUDY    54  54 100 SE9       29.94R FOG
SANDBERG       CLEAR     70  40  33 NW13      30.12S
LAS VEGAS NV   CLEAR     76  32  20 SW3       29.96R
PHOENIX AZ     PTCLDY    81  32  17 CALM      29.82R
TIJUANA        FOG       59  55  88 CALM      29.96  VSB 1/2
ENSENADA NW      N/A     60  32  35 W8        29.90S

$$

OFFSHORE ISLANDS

CITY           SKY/WX    TMP DP  RH WIND       PRES   REMARKS
CATALINA ARPT  PTCLDY    72  39  30 W5        29.96F
SAN NICOLAS IS CLOUDY   N/A N/A N/A W10       29.95R

$$

MARINE AND OFFSHORE BUOY REPORTS

STATION/POSITION SKY/WX   TEMP    WIND        PRES    VSBY  SWELL
                          AIR SEA DIR/SP/G                  HT/PER/DIR
                          (F)     (DEG/KT/KT) (MB)    (MI)  (FT/S/D)
TANNER BANKS               55 60  310/ 10/ 12 1014.6F         3/180/15
S CLEMENTE BASIN           58 62  340/  4/  8 1014.5R         3/200/16
SAN NICOLAS IS.               59                N/A           3/170/15
SO. S. ROSA ISLA           52 55  300/ 12/ 16 1014.5R         3/140/15
W. S. BARBARA CH           54 55  340/  6/ 12 1013.9R         3/210/15
M. S. BARBARA CH                  210/ 14/ 16 1014.1S
S. MONICA BASIN            55 62  310/  2/  6 1013.8F         3/140/16
S PEDRO CHANNEL               62                N/A           2/170/15
CMP PENDLETON NS              64                N/A           3/220/15
OCEANSIDE OFFSHR              64                N/A           3/190/15
TORREY PINES OTR              66                N/A           2/210/15
SAN DIEGO BAY                 69              1013.9F
POINT LOMA SOUTH              65                N/A           3/200/13

$$




USA.gov is the U.S. government's official web portal to all federal, state and local government web resources and services.